FW4191 Weather Reports


Display with metric or nautical units.
time (UTC)temp
F
wind
direction
speed
MPH
gust
MPH
rain 1hr
in
rain 24hr
in
rain mn
in
humidity
%
barometer
mb
20260502163645 52 306 1.0 3.0 0.00 0.04 0.02 47 1082.9
20260502162731 53 271 2.0 4.0 0.00 0.04 0.02 46 1083.1
20260502161731 52 357 1.0 3.0 0.00 0.05 0.02 46 1083.1
20260502160731 51 326 1.0 3.0 0.00 0.05 0.02 46 1083.1
20260502150531 51 311 1.0 3.0 0.00 0.05 0.02 48 1083.2
20260502130629 46 53 1.0 3.0 0.00 0.04 0.01 80 1083.1
20260502123630 42 249 1.0 3.0 0.00 0.04 0.01 87 1082.9
20260502122632 41 225 0.0 0.0 0.00 0.04 0.01 90 1082.7
20260502121729 39 67 2.0 3.0 0.00 0.04 0.01 91 1082.6
20260502120729 37 180 0.0 0.0 0.00 0.04 0.01 92 1082.3
20260502115745 36 180 0.0 0.0 0.00 0.04 0.01 94 1081.9
20260502113729 36 180 0.0 0.0 0.00 0.04 0.01 94 1081.6
20260502112746 35 180 0.0 0.0 0.00 0.05 0.01 94 1081.6
20260502111733 35 180 0.0 0.0 0.00 0.05 0.01 94 1081.2
20260502110830 35 180 0.0 0.0 0.00 0.05 0.01 93 1081.2
20260502105929 35 180 0.0 0.0 0.00 0.05 0.01 92 1081.2
20260502104029 35 180 0.0 0.0 0.00 0.05 0.01 93 1081.2
20260502103930 35 180 0.0 0.0 0.00 0.05 0.01 92 1081.3
20260502102932 35 180 0.0 0.0 0.00 0.05 0.01 93 1081.3
20260502101029 35 180 0.0 0.0 0.00 0.05 0.01 93 1081.3
20260502091129 34 180 0.0 0.0 0.00 0.05 0.01 91 1081.1
20260502090129 34 180 0.0 0.0 0.00 0.05 0.01 92 1081.1
20260502071145 36 180 0.0 0.0 0.01 0.05 0.01 91 1081.0
20260502070128 37 180 0.0 0.0 0.01 0.05 0.01 92 1080.8
20260502065144 37 180 0.0 0.0 0.01 0.05 0.01 91 1081.0
20260502065046 37 180 0.0 0.0 0.01 0.05 0.01 91 1081.1
20260502063128 37 180 0.0 0.0 0.01 0.05 0.01 92 1081.4
20260502062130 37 180 0.0 0.0 0.01 0.06 0.01 92 1081.6
20260502061129 37 180 0.0 0.0 0.00 0.05 0.00 92 1081.9
20260502061030 38 180 0.0 0.0 0.00 0.05 0.00 92 1081.8
20260502060029 38 180 0.0 0.0 0.00 0.05 0.00 91 1081.8
20260502053931 38 180 0.0 0.0 0.00 0.05 0.00 92 1081.9
20260502052931 38 180 0.0 0.0 0.00 0.05 0.00 92 1081.7
20260502051931 37 180 0.0 0.0 0.00 0.05 0.00 91 1081.7
20260502050930 37 180 0.0 0.0 0.00 0.05 0.00 91 1081.6
20260502050028 37 180 0.0 0.0 0.00 0.05 0.00 91 1081.6
20260502044047 36 180 0.0 0.0 0.00 0.05 0.00 90 1081.7
20260502043030 37 180 0.0 0.0 0.00 0.05 0.00 90 1081.7
20260502041029 37 180 0.0 0.0 0.00 0.05 0.00 88 1081.6
20260502040031 37 180 0.0 0.0 0.00 0.05 0.00 87 1081.6
20260502035027 37 180 0.0 0.0 0.00 0.05 0.05 86 1081.8
20260502034043 38 180 0.0 0.0 0.00 0.05 0.05 87 1081.7
20260502033126 39 180 0.0 0.0 0.00 0.05 0.05 87 1081.7
20260502033027 39 180 0.0 0.0 0.00 0.05 0.05 86 1081.8
20260502031129 40 180 0.0 0.0 0.00 0.05 0.05 85 1081.7
20260502030028 40 180 0.0 0.0 0.00 0.05 0.05 86 1081.6
20260502024029 40 180 0.0 0.0 0.00 0.05 0.05 84 1081.7
20260502023027 40 180 0.0 0.0 0.00 0.05 0.05 84 1081.6
20260502022026 40 180 0.0 0.0 0.00 0.05 0.05 83 1081.4
20260502021027 41 180 0.0 0.0 0.00 0.05 0.05 83 1081.4
20260502015030 41 180 0.0 0.0 0.00 0.05 0.05 80 1081.2
20260502014027 41 180 0.0 0.0 0.00 0.05 0.05 79 1080.8
20260502013127 42 180 0.0 0.0 0.00 0.05 0.05 78 1080.8
20260502012145 42 180 0.0 0.0 0.00 0.05 0.05 76 1080.7
20260502012042 42 180 0.0 0.0 0.00 0.05 0.05 76 1080.7
20260502011127 43 180 0.0 0.0 0.00 0.05 0.05 75 1080.5
20260502011026 43 180 0.0 0.0 0.00 0.05 0.05 75 1080.4
20260502010042 43 180 0.0 0.0 0.00 0.05 0.05 75 1080.2
20260502005043 44 180 0.0 0.0 0.00 0.05 0.05 72 1080.2
20260502004128 45 180 0.0 0.0 0.01 0.05 0.05 71 1079.9
20260502003127 46 180 0.0 0.0 0.01 0.06 0.05 68 1079.5
20260502002128 47 180 0.0 0.0 0.01 0.06 0.05 68 1079.5
20260502001126 47 180 0.0 0.0 0.01 0.06 0.05 66 1079.6
20260502001045 47 180 0.0 0.0 0.01 0.06 0.05 65 1079.6
20260501234228 50 157 0.0 1.0 0.00 0.05 0.04 64 1080.0
20260501233327 50 157 0.0 0.0 0.00 0.05 0.04 65 1079.8
20260501230326 51 270 0.0 0.0 0.00 0.05 0.04 62 1079.7
20260501225425 52 270 0.0 0.0 0.00 0.05 0.04 59 1079.7
20260501225328 52 270 0.0 0.0 0.00 0.05 0.04 59 1079.9
20260501224329 52 49 1.0 3.0 0.00 0.05 0.04 59 1079.9
20260501223344 53 247 0.0 0.0 0.00 0.05 0.04 60 1080.0
20260501222328 53 45 0.0 0.0 0.00 0.05 0.04 59 1079.8
20260501221327 54 289 0.0 1.0 0.00 0.05 0.04 59 1079.9
20260501220327 54 67 0.0 0.0 0.00 0.05 0.04 58 1079.8
20260501215343 53 318 0.0 1.0 0.00 0.05 0.04 59 1080.0
20260501214344 53 352 1.0 3.0 0.00 0.05 0.04 57 1079.9
20260501213327 55 352 0.0 2.0 0.00 0.05 0.04 55 1080.1
20260501212327 56 17 2.0 3.0 0.00 0.05 0.04 54 1080.0
20260501212243 56 65 3.0 7.0 0.00 0.05 0.04 54 1080.0
20260501211342 57 315 2.0 3.0 0.00 0.06 0.04 56 1079.9
20260501210428 57 339 1.0 3.0 0.00 0.06 0.04 58 1080.0
20260501204427 54 328 3.0 4.0 0.01 0.06 0.04 59 1080.0
20260501202428 55 307 2.0 3.0 0.01 0.06 0.04 62 1079.9
20260501202330 54 319 2.0 3.0 0.01 0.06 0.04 61 1079.7
20260501201426 54 27 2.0 3.0 0.01 0.06 0.04 61 1079.7
20260501200427 54 354 1.0 3.0 0.01 0.06 0.04 60 1079.7
20260501195427 55 327 2.0 3.0 0.01 0.06 0.04 60 1079.7
20260501192427 55 342 2.0 3.0 0.00 0.05 0.03 63 1079.5
20260501191428 56 283 2.0 4.0 0.00 0.05 0.03 65 1079.5
20260501190443 54 325 2.0 3.0 0.00 0.05 0.03 66 1079.5
20260501182542 54 15 2.0 3.0 0.00 0.06 0.03 66 1079.0
20260501181626 54 320 2.0 4.0 0.00 0.06 0.03 67 1078.8
20260501180725 54 337 1.0 2.0 0.00 0.06 0.03 69 1078.7
20260501174726 54 336 2.0 3.0 0.00 0.06 0.03 68 1078.5
20260501174627 54 336 2.0 4.0 0.00 0.06 0.03 68 1078.4
20260501173627 55 321 1.0 2.0 0.00 0.06 0.03 74 1078.2
20260501173528 55 246 1.0 2.0 0.00 0.06 0.03 73 1078.2
20260501172625 54 304 1.0 4.0 0.01 0.06 0.03 77 1078.0
20260501172541 54 259 0.0 2.0 0.01 0.06 0.03 78 1077.9
20260501172426 54 303 2.0 4.0 0.01 0.06 0.03 78 1078.0
20260501171427 52 287 1.0 3.0 0.01 0.06 0.03 81 1077.8